C/2024 N4 ( Sarneczky )

Japanese version
Home page
Updated on January 10, 2025

---------------------------------------------------------------------

* Profile

Discovery Date July 14, 2024
Magnitude 19.0 mag
Discoverer Krisztian Sarneczky (Piszkesteto Observatory in Hungary)

* Pictures

* Orbital Elements

Epoch 2024 Oct. 17.0 TT = JDT 2460600.5
T 2025 Jan.  9.83933 TT                                 Rudenko
q   5.3975950            (2000.0)            P               Q
z  -0.0008143      Peri.  116.66264     -0.22016343     -0.93867844
 +/-0.0000157      Node   339.66200     +0.36822009     +0.17192599
e   1.0043951      Incl.   49.77124     +0.90329510     -0.29887162
From 136 observations 2024 July 14-Nov. 10, mean residual 0".5.

* Magnitudes Graph

        m1 = 7.5 + 5 log d + 10.0 log r

---------------------------------------------------------------------

The orbital elements are published on M.P.E.C. 2024-V192.
The magnitudes graphs are made with Comet for Windows.

---------------------------------------------------------------------

Copyright(C) Seiichi Yoshida (comet@aerith.net). All rights reserved.